IRIDIUM 29 [-]

Last updated on Wed Jun 28 2023 00:03:02 GMT+0000 (Coordinated Universal Time)

1 24944U 97051A 23178.46600298 .00000486 00000+0 16298-3 0 9997 2 24944 86.3955 85.9664 0002502 85.2360 274.9122 14.35295513350072
UTC large
Height (km)
Speed (km/s)
/
Latitude / Longitude
Inclination (degrees)
Orbital Period (minutes)
Azimuth
Elevation
Range (km)
Doppler Factor

Next 0 passes for location: London (51.5072 / 0.1276)

Sorry there are no passes over London.